Theta_e
321 325 327 325 324 329 339 343 345 343 340 340 340 341 338 333 332 330 330 329 329 329 325 322 320 318 318 318 317 316 315 316 316 316 315 316 315 314 314 314 315 315 315 315
325 325 321 324 335 338 340 343 344 342 339 340 339 339 337 335 333 332 331 330 330 328 325 323 321 320 320 319 318 317 316 316 316 315 315 315 315 316 316 316 315 315 314 313
326 324 322 324 327 329 330 334 341 342 339 338 339 340 338 335 330 331 329 329 328 327 326 324 321 319 318 318 317 317 316 314 314 310 309 311 312 314 313 312 312 312 311 312
326 324 324 325 324 324 327 327 336 340 339 341 337 339 339 337 332 332 330 328 327 327 325 323 321 318 318 317 317 317 316 314 310 308 310 311 311 311 311 311 310 311 312 312
327 328 327 327 325 324 327 335 339 339 333 339 340 340 340 337 336 334 330 328 328 324 321 320 318 317 317 317 316 317 315 313 309 308 308 310 311 311 310 309 309 310 311 312
328 327 326 327 324 323 333 334 324 338 326 331 339 339 342 339 337 335 330 328 326 322 319 317 317 317 316 316 315 315 311 311 310 308 309 310 311 310 309 309 309 309 310 310
327 326 325 323 326 324 325 328 328 327 327 329 337 339 340 335 335 332 331 327 322 319 318 318 317 317 316 315 313 310 310 310 309 310 310 310 310 309 308 309 308 308 309 310
331 331 325 322 325 326 325 327 328 329 329 327 335 336 341 333 329 327 326 323 320 317 317 317 317 315 313 310 309 309 309 309 309 309 308 308 309 308 308 308 308 308 309 310
331 329 324 322 322 324 327 326 323 328 325 329 334 335 335 331 329 327 323 321 318 317 316 316 314 310 310 309 308 309 309 309 309 308 307 308 309 308 308 308 308 309 309 309
329 331 325 323 323 323 325 324 326 326 325 323 331 335 337 332 329 328 325 321 319 317 316 315 311 309 309 307 309 309 309 309 308 308 308 308 308 307 307 307 308 308 309 309
326 330 326 325 326 326 326 326 327 327 329 328 329 335 329 330 331 329 325 322 319 317 315 311 309 309 307 308 308 309 309 309 308 308 308 307 306 305 305 306 307 307 307 308
324 329 329 327 324 327 329 330 328 331 333 333 333 334 327 328 326 326 323 320 313 313 311 309 308 308 308 308 308 308 307 308 308 307 306 305 303 303 305 305 304 304 306 306
327 329 327 326 325 325 331 329 328 328 328 333 332 335 325 328 327 325 321 315 312 311 309 309 308 308 308 308 308 307 307 306 306 306 304 301 303 303 303 302 302 302 303 303
330 329 327 325 327 326 332 326 328 328 330 332 331 329 328 326 326 321 316 312 312 311 309 309 308 308 309 308 308 307 307 306 306 304 303 303 302 302 302 301 301 302 301 301
330 331 332 332 331 330 328 327 326 326 328 327 326 324 326 322 321 318 314 312 310 309 309 309 310 309 308 307 306 306 307 306 302 303 303 303 302 302 301 302 301 301 302 301
326 334 331 333 330 327 327 326 325 326 325 324 324 325 319 316 314 314 312 310 310 309 309 310 308 307 306 306 306 305 304 303 304 303 303 303 303 303 303 302 302 301 301 302
330 332 330 333 330 329 331 330 327 325 323 324 326 324 318 317 314 312 311 310 309 309 309 308 307 306 305 305 305 304 304 304 304 304 303 303 304 303 303 303 304 303 303 303
330 331 329 332 330 332 330 328 326 326 323 320 321 321 319 317 312 310 310 310 310 309 308 307 306 305 305 304 304 304 304 304 304 304 304 304 305 303 303 303 303 303 303 303
328 329 330 333 332 330 330 329 326 326 326 322 320 318 315 313 312 311 310 309 309 308 306 306 305 305 304 304 304 304 304 304 304 304 304 304 305 304 304 304 304 304 304 304
326 326 328 330 327 329 329 326 323 323 327 318 318 319 316 314 316 313 310 309 308 307 306 305 305 306 305 305 305 304 304 304 304 304 304 304 303 304 305 304 304 305 305 305
330 328 328 329 329 329 326 324 320 322 322 317 317 317 315 315 313 311 309 309 307 306 306 306 306 305 305 304 304 304 305 305 305 305 304 305 304 304 305 304 305 306 306 305
329 328 328 327 325 323 322 322 323 321 317 316 315 315 314 312 311 310 309 309 307 305 306 306 306 305 305 304 304 304 305 305 306 306 306 305 305 304 304 305 305 306 306 307
330 326 327 326 326 323 321 322 318 317 317 315 314 312 312 311 310 310 310 307 305 306 307 307 305 306 306 306 304 304 304 306 305 306 306 305 305 305 305 306 307 308 308 307
326 324 329 328 325 323 319 316 315 315 315 313 312 311 311 311 310 310 307 307 307 307 307 306 306 307 307 306 305 305 306 305 306 307 307 306 306 307 307 308 308 308 309 309
325 326 327 328 325 322 317 316 315 314 312 311 310 310 310 310 310 309 309 307 308 307 307 306 306 307 307 307 306 307 307 306 307 307 308 308 309 309 309 309 307 309 308 305
324 327 328 325 324 324 322 316 313 313 312 311 310 310 309 309 309 309 307 307 307 306 306 307 307 308 308 308 307 306 307 308 309 309 309 308 308 309 310 311 311 307 302 301
Wind_Speed
3 5 7 7 9 11 13 13 15 10 3 10 12 11 9 8 11 10 8 7 7 9 11 13 13 16 16 16 16 17 18 16 16 15 16 13 13 12 13 11 12 8 9 10
6 8 3 11 14 17 16 17 8 9 8 8 10 9 6 6 7 7 8 6 6 7 8 10 12 14 15 14 13 14 16 17 16 14 12 10 13 11 11 10 10 10 12 11
9 4 4 11 10 11 4 5 10 8 12 12 13 4 6 4 6 6 5 6 6 6 5 8 13 12 11 12 14 14 15 16 14 17 18 16 14 11 10 13 12 14 12 11
8 2 4 5 4 1 3 0 15 19 8 4 9 2 8 8 7 5 4 4 5 5 5 8 8 8 9 9 9 11 12 12 14 16 14 14 13 13 14 15 14 15 12 11
4 2 4 7 4 1 5 10 14 14 3 7 9 4 3 7 10 10 7 6 5 5 5 6 6 7 9 10 12 11 11 12 14 15 15 13 13 12 13 14 17 14 13 11
5 1 4 4 5 7 15 7 4 6 2 4 4 4 7 7 12 8 7 5 4 5 6 6 6 8 9 10 10 9 11 12 12 15 15 14 13 13 16 17 16 16 14 12
4 5 3 5 2 5 6 1 5 5 4 4 1 6 4 10 1 2 7 5 4 5 3 4 6 8 8 9 7 9 10 11 14 15 15 15 14 14 16 17 18 17 15 14
2 2 6 9 4 3 5 3 4 6 5 5 2 3 5 9 10 10 6 5 3 2 3 5 6 6 3 5 8 9 11 14 15 14 16 15 12 14 15 17 18 17 14 14
3 4 2 7 8 4 2 4 3 2 1 3 2 0 9 7 6 6 5 5 1 6 5 5 3 3 6 7 8 9 12 15 13 14 17 14 13 14 15 15 14 13 12 11
2 4 3 3 3 10 6 2 2 2 5 9 1 2 5 11 1 4 3 4 7 4 2 1 1 2 3 8 9 10 11 13 14 13 13 13 12 12 12 12 13 13 12 12
2 2 3 1 6 7 6 4 4 1 3 3 4 4 4 7 3 3 4 5 2 1 5 4 5 8 8 8 10 11 12 15 15 14 13 12 13 15 14 12 12 12 12 10
4 2 3 3 1 6 8 5 3 3 2 2 2 3 4 3 5 4 4 6 8 6 4 5 5 8 9 11 12 13 14 14 14 12 12 13 16 17 14 13 14 12 9 8
2 3 2 3 5 3 6 7 3 2 1 4 4 3 3 2 3 6 6 8 6 6 4 6 9 10 11 12 13 13 13 13 11 11 13 15 16 16 15 13 12 16 12 8
4 3 3 3 3 2 3 9 7 3 4 2 4 3 3 2 4 5 6 6 7 6 6 8 11 12 12 13 13 13 13 11 10 11 11 13 15 15 15 13 12 11 9 9
3 3 4 6 6 7 5 6 10 10 5 4 3 4 3 5 4 6 6 6 5 6 8 9 11 13 15 15 16 16 12 11 11 11 12 13 14 17 14 13 16 14 8 6
3 4 3 3 5 5 6 4 4 5 3 1 2 3 3 6 7 6 6 5 5 7 8 9 11 13 14 14 14 14 13 12 12 13 14 12 15 18 15 12 11 14 14 11
2 5 2 2 4 4 2 4 3 2 2 3 6 3 7 5 5 5 4 5 6 7 8 8 10 11 11 12 11 10 10 11 12 13 14 15 16 19 16 15 13 13 13 10
4 3 2 2 2 1 2 2 5 5 4 2 0 1 2 4 5 4 4 4 5 6 7 8 10 10 11 11 10 8 11 11 12 14 15 15 14 17 18 15 16 15 13 12
3 4 3 1 0 2 2 1 3 4 6 4 1 4 6 7 6 4 4 6 5 6 5 6 6 7 8 10 9 9 10 11 13 15 15 14 14 15 15 17 16 16 15 15
7 7 2 1 1 1 1 1 4 3 1 4 2 3 6 6 4 4 4 4 5 5 5 6 7 7 9 10 9 10 12 13 14 14 14 13 12 12 13 15 15 15 15 14
2 2 4 1 1 1 1 4 1 4 4 2 2 2 6 1 3 6 6 5 6 5 5 5 7 9 9 9 8 9 11 13 13 12 11 12 13 13 13 13 13 14 14 16
1 1 1 1 1 1 3 2 3 3 3 3 3 4 5 7 7 6 4 4 5 5 4 6 7 7 7 9 8 9 13 14 13 11 9 10 10 12 12 13 13 12 12 13
1 2 2 2 2 2 3 2 4 3 5 4 5 6 8 8 6 4 4 4 4 4 5 6 5 6 7 8 9 10 15 15 12 10 10 10 13 20 20 16 13 13 12 12
1 1 0 1 1 0 2 4 3 4 7 7 8 8 5 6 5 4 4 2 2 4 5 5 3 6 7 9 10 12 14 12 12 12 13 13 13 14 17 14 14 14 16 15
2 3 1 1 2 2 4 3 6 8 10 10 8 6 5 5 4 4 4 3 4 4 4 4 4 5 6 9 11 11 10 12 13 13 13 13 14 13 13 11 13 11 12 14
2 1 0 2 2 2 2 8 9 10 10 9 8 6 6 4 5 5 5 4 4 4 4 4 5 5 6 8 10 12 11 11 12 13 13 12 12 12 12 11 11 16 17 21
Wind_Direction
35 121 87 79 85 104 103 108 114 111 92 78 112 120 128 117 109 99 98 91 66 63 60 59 59 62 62 55 48 45 50 38 28 21 18 10 6 11 6 356 344 344 348 342
110 78 30 103 108 108 116 118 111 96 89 110 129 111 125 128 111 121 124 107 93 70 46 46 52 46 37 36 37 33 28 18 16 8 2 347 344 345 349 353 353 346 336 327
83 82 125 111 122 119 156 137 170 138 112 126 137 138 172 131 124 104 88 110 88 76 63 43 36 32 30 24 18 12 8 5 5 359 357 0 4 351 352 348 341 337 333 330
75 66 82 99 99 259 111 18 149 148 165 174 209 193 220 194 195 163 173 153 126 95 70 51 31 26 11 8 2 355 354 356 355 360 2 360 354 349 341 340 335 336 341 341
103 72 62 58 14 221 57 142 151 160 145 154 199 253 141 199 226 213 193 184 113 82 75 63 25 4 351 350 345 336 345 353 355 352 351 351 345 341 337 340 339 335 331 337
86 24 32 354 58 67 134 120 99 195 203 259 170 249 188 194 236 215 179 124 112 87 64 19 9 360 352 348 347 350 353 351 347 345 344 342 341 340 338 338 342 343 340 340
71 30 3 18 38 111 189 150 310 278 272 337 162 216 24 195 15 185 157 127 111 102 71 327 338 346 341 338 348 347 349 341 340 336 337 340 335 335 335 337 335 332 336 336
166 175 15 348 22 341 41 350 334 314 316 336 182 283 55 78 84 79 100 110 131 126 234 262 307 328 357 354 348 346 341 338 333 335 332 335 332 333 336 336 336 330 328 328
145 129 146 36 37 316 59 24 359 297 106 263 14 245 95 77 76 98 112 120 167 237 231 255 326 44 330 341 342 343 338 330 327 328 333 332 336 335 339 342 342 338 332 333
81 133 26 29 352 46 47 64 300 356 298 309 182 343 13 357 212 158 151 206 221 229 267 299 98 0 358 343 342 341 335 332 331 333 341 345 349 347 343 343 344 339 334 340
40 13 76 75 34 19 32 36 38 48 329 311 315 72 6 351 34 167 198 210 219 58 71 66 52 344 354 353 346 341 344 343 343 349 354 356 354 352 346 342 341 343 337 349
25 71 70 96 47 56 61 34 16 328 53 54 318 87 1 21 68 105 95 81 74 82 65 54 12 359 355 348 350 353 352 351 355 359 7 1 351 347 345 344 354 345 344 27
151 36 340 147 200 72 43 16 32 85 234 43 344 56 46 106 102 47 93 93 91 75 66 14 1 351 345 348 354 358 1 2 3 9 360 2 0 353 351 354 3 19 20 20
89 66 35 10 11 351 48 27 29 28 38 55 42 351 70 59 14 84 93 94 86 64 34 11 1 359 0 3 359 357 357 6 13 7 2 6 11 11 8 7 10 9 5 21
67 95 92 75 81 90 82 50 46 59 49 33 14 341 42 20 51 102 100 89 70 41 18 17 10 4 6 2 359 360 2 22 19 9 9 12 9 5 11 10 20 23 30 27
30 114 114 87 93 87 74 44 49 56 54 104 286 315 83 106 109 106 99 84 39 28 20 15 11 7 6 7 11 15 20 24 15 15 18 10 8 17 17 15 16 31 35 32
54 139 174 108 150 314 235 10 5 319 262 315 328 26 158 149 131 132 108 59 38 22 17 15 10 9 3 5 9 15 14 14 19 16 17 9 8 22 28 26 28 27 36 34
122 102 53 95 195 255 80 304 303 290 291 236 305 101 163 132 104 106 76 51 37 27 25 16 9 1 4 8 17 17 14 18 19 15 16 12 16 27 35 34 32 32 34 39
66 120 98 268 203 338 183 158 327 308 345 8 352 121 124 132 141 112 72 63 47 37 28 20 7 6 17 25 21 23 23 23 24 14 16 22 22 27 33 38 41 38 44 53
74 69 82 142 337 40 67 11 342 193 125 35 1 158 165 171 289 76 112 89 63 57 39 21 8 14 20 20 31 39 32 27 27 18 13 19 21 29 29 28 30 40 51 59
53 32 53 83 359 202 303 325 266 338 6 50 33 123 157 174 43 112 123 88 70 58 48 24 26 34 33 42 43 37 27 14 359 352 1 13 18 29 29 35 40 49 53 63
65 95 66 142 300 360 18 217 336 76 117 109 90 100 133 116 122 119 106 78 72 75 47 24 35 33 34 40 29 20 18 7 10 7 12 19 22 30 43 58 59 53 55 54
138 357 356 241 18 19 357 39 98 105 116 107 111 109 124 124 129 118 114 94 85 72 45 35 51 45 33 29 22 11 6 5 13 29 39 45 59 67 72 68 57 48 37 36
91 163 32 253 125 217 111 115 102 99 100 107 113 121 119 116 128 104 95 97 78 58 56 41 41 38 35 26 22 18 15 34 52 60 67 71 65 62 63 66 59 42 31 21
30 177 107 292 220 207 177 177 130 110 114 114 105 101 111 126 110 96 93 92 86 85 61 37 28 35 30 27 27 29 38 60 70 71 74 69 59 52 52 46 41 34 32 28
184 152 263 43 1 6 82 157 142 135 130 130 125 117 122 115 108 108 90 77 93 100 78 50 20 21 27 35 46 56 57 67 71 71 74 68 46 47 52 39 53 52 55 52